Погода в Воротынце

Россия / Нижегородская область     56°03′40″N   45°51′49″E
темп.,
°C
ветер,
м/с
пор.,
м/с
влажн.,
%
обл.,
%
осадки,
мм/ч
давл.,
гПа
погр.,
м
19 сентября, вс
вс1900:00+1с22855 0.0 102612
03:000ссз1189100 0.0 102610
06:00+1ссз118775 0.0 102610
09:00+5с235743 0.0 1027462
12:00+9ссв2243100 0.0 10261215
15:00+10ссв223996 0.0 10251328
18:00+6св3358100 0.0 102622
21:00+4всв2268100 0.0 102620
20 сентября, пн
пн2000:00+2всв3376100 0.0 102745
03:00+2всв487899 0.0 1027228
06:00+1в41178100 0.0 1027339
09:00+5в6961100 0.0 1027542
12:00+8в6749100 0.0 10271003
15:00+9в6745100 0.0 10261143
18:00+7в5948100 0.0 1026494
21:00+5в51254100 0.0 1026358
21 сентября, вт
вт2100:00+4в51258100 0.0 1025330
03:00+5в51258100 0.0 1024357
06:00+5в51257100 0.0 1024427
09:00+8вюв71152100 0.0 1023574
12:00+9вюв61151100 0.0 1022850
15:00+9вюв61150100 0.0 1022832
18:00+9вюв61149100 0.0 1021868
21:00+9в61151100 0.0 1021761
22 сентября, ср
ср2200:00+8в61256100 0.0 1020576
03:00+8в6125887 0.0 1019485
06:00+8в61359100 0.0 1019497
09:00+9в61259100 0.0 1019552
12:00+12в6105699 0.0 1019882
15:00+12в51058100 0.0 1019856
18:00+13вюв51067100 0.2 1019766
21:00+10вюв51193100 1.5 1019552
23 сентября, чт
чт2300:00+10вюв51194100 0.9 1019575
03:00+10вюв51095100 1.9 1019485
06:00+9вюв51195100 0.0 1019406
09:00+10вюв5108972 0.3 1020407
12:00+11юв51083100 0.1 1019521
15:00+10юв5993100 0.4 1019529
18:00+11юв51094100 0.0 1019552
21:00+11ююв61293100 0.0 1019573